Tracking 27420 objects as of 29-May-2023
HD Live streaming from Space Station
objects crossing your sky now

STARLINK-1133

Track STARLINK-1133 now!
10-day predictions
STARLINK-1133 is classified as:


NORAD ID: 45064
Int'l Code: 2020-006W
Perigee: 553.5 km
Apogee: 555.3 km
Inclination: 53.1 °
Period: 95.6 minutes
Semi major axis: 6925 km
RCS: Unknown
Launch date: January 29, 2020
Source: United States (US)
Launch site: AIR FORCE EASTERN TEST RANGE (AFETR)
Your satellite tracking list
Your tracking list is empty




NASA's NSSDC Master Catalog

Two Line Element Set (TLE):
1 45064U 20006W   23148.26296548  .00000837  00000-0  75079-4 0  9997
2 45064  53.0535 149.5317 0001301  77.1390 282.9744 15.06399065183545
Source of the keplerian elements: AFSPC